Deer Park, WA
on Monday, January 21, 2013

Monday
Previous Day Next Day
Daily Summary
 ActualAverageRecord
Temperature
Mean Temperature °F 28°F  
Max Temperature 22°F 34°F 44°F (2005)
Min Temperature -1°F 22°F -6°F (2008)
Degree Days
Heating Degree Days 54 37  
Month to date heating degree days 940 805  
Since 1 July heating degree days 3733 4032  
Cooling Degree Days 0 0  
Month to date cooling degree days 0 0  
Year to date cooling degree days 0 0  
Moisture
Dew Point 5°F   
Average Humidity 89    
Maximum Humidity 100    
Minimum Humidity 77    
Precipitation
Precipitation 0.00 in 0.07 in 0.37 in (2001)
Month to date precipitation 1.11 1.97  
Year to date precipitation 1.11 1.97  
Wind
Wind Speed 0 mph   
Max Wind Speed 5 mph   
Max Gust Speed 5 mph   
Visibility 4 miles   
Events Fog   

Key: T is trace of precipitation, MM is missing value
Source: NWS Daily Summary
Time(PST)TemperatureDew PointHumidity Pressure Visibility Wind DirectionWind SpeedGust SpeedPrecipitationEvents Conditions
12:05 AM 6.8°F 3.2°F 85% 30.37 in 6.0 miles Calm Calm - N/A   Scattered Clouds
1:53 AM 3.9°F 1.0°F 88% 30.48 in 10.0 miles NW 4.6 mph - N/A   Clear
2:39 AM 1.4°F -2.2°F 85% 30.36 in 8.0 miles Calm Calm - N/A   Scattered Clouds
2:53 AM 1.9°F -0.9°F 88% 30.48 in 10.0 miles Calm Calm - N/A   Mostly Cloudy
3:10 AM 1.4°F -0.4°F 92% 30.36 in 1.2 miles Calm Calm - N/A   Overcast
3:17 AM 3.2°F 1.4°F 92% 30.36 in 0.5 miles East 3.5 mph - N/A Fog Light Freezing Fog
3:27 AM 3.2°F 1.4°F 92% 30.35 in 2.0 miles Calm Calm - N/A   Overcast
3:44 AM 5.0°F 1.4°F 85% 30.35 in 0.8 miles Calm Calm - N/A   Mist
3:53 AM 3.9°F 1.9°F 91% 30.47 in 0.2 miles Calm Calm - N/A Fog Light Freezing Fog
4:14 AM 5.0°F 3.2°F 92% 30.35 in 2.5 miles Calm Calm - N/A   Overcast
4:21 AM 3.2°F 1.4°F 92% 30.35 in 10.0 miles Calm Calm - N/A   Overcast
4:35 AM 1.4°F -0.4°F 92% 30.35 in 1.2 miles Calm Calm - N/A   Overcast
4:43 AM 3.2°F 1.4°F 92% 30.34 in 0.2 miles Calm Calm - N/A Fog Light Freezing Fog
4:53 AM 3.0°F 1.9°F 95% 30.48 in 0.2 miles Calm Calm - N/A Fog Light Freezing Fog
5:53 AM 3.0°F -0.9°F 84% 30.47 in 0.5 miles Calm Calm - N/A Fog Light Freezing Fog
6:53 AM 1.9°F -0.0°F 91% 30.47 in 0.2 miles Calm Calm - N/A Fog Light Freezing Fog
7:46 AM -0.4°F -4.0°F 85% 30.34 in 2.0 miles Calm Calm - N/A   Overcast
7:53 AM -0.0°F -4.0°F 83% 30.48 in 10.0 miles Calm Calm - N/A   Overcast
8:50 AM 3.2°F 1.4°F 92% 30.34 in 1.0 miles Calm Calm - N/A   Mist
8:53 AM 3.9°F 1.9°F 91% 30.49 in 0.2 miles Calm Calm - N/A Fog Light Freezing Fog
9:40 AM 6.8°F 5.0°F 92% 30.34 in 2.0 miles Calm Calm - N/A   Overcast
9:48 AM 8.6°F 8.6°F 100% 30.34 in 10.0 miles Calm Calm - N/A   Mostly Cloudy
9:53 AM 9.0°F 8.1°F 96% 30.48 in 10.0 miles Calm Calm - N/A   Mostly Cloudy
10:01 AM 8.6°F 8.6°F 100% 30.34 in 10.0 miles Calm Calm - N/A   Scattered Clouds
10:53 AM 12.9°F 12.9°F 100% 30.46 in 10.0 miles Calm Calm - N/A   Clear
11:53 AM 16.0°F 12.9°F 88% 30.45 in 10.0 miles Calm Calm - N/A   Clear
12:53 PM 19.0°F 16.0°F 88% 30.42 in 10.0 miles Calm Calm - N/A   Clear
1:53 PM 21.0°F 18.0°F 88% 30.40 in 10.0 miles Calm Calm - N/A   Clear
2:53 PM 21.0°F 17.1°F 85% 30.39 in 10.0 miles Calm Calm - N/A   Clear
3:53 PM 21.0°F 15.1°F 78% 30.38 in 10.0 miles Calm Calm - N/A   Clear
4:53 PM 12.0°F 10.9°F 95% 30.39 in 8.0 miles Calm Calm - N/A   Clear
5:53 PM 14.0°F 10.9°F 88% 30.40 in 7.0 miles Calm Calm - N/A   Clear
6:30 PM 6.8°F 6.8°F 100% 30.26 in 1.2 miles Calm Calm - N/A   Clear
6:43 PM 10.4°F 8.6°F 92% 30.26 in 3.0 miles Calm Calm - N/A   Clear
6:53 PM 5.0°F 3.0°F 92% 30.41 in 5.0 miles Calm Calm - N/A   Scattered Clouds
6:57 PM 5.0°F 3.2°F 92% 30.26 in 1.5 miles Calm Calm - N/A   Scattered Clouds
7:04 PM 6.8°F 5.0°F 92% 30.26 in 1.0 miles Calm Calm - N/A   Mist
7:07 PM 6.8°F 5.0°F 92% 30.26 in 2.0 miles NE 3.5 mph - N/A   Scattered Clouds
7:14 PM 6.8°F 6.8°F 100% 30.26 in 6.0 miles Calm Calm - N/A   Scattered Clouds
7:51 PM 8.6°F 6.8°F 92% 30.26 in 6.0 miles Calm Calm - N/A   Mostly Cloudy
7:53 PM 8.1°F 5.0°F 87% 30.42 in 6.0 miles Calm Calm - N/A   Mostly Cloudy
8:09 PM 8.6°F 6.8°F 92% 30.27 in 1.0 miles Calm Calm - N/A   Mist
8:16 PM 8.6°F 6.8°F 92% 30.27 in 0.2 miles Calm Calm - N/A Fog Light Freezing Fog
8:53 PM 7.0°F 5.0°F 92% 30.43 in 0.2 miles Calm Calm - N/A Fog Light Freezing Fog
9:53 PM 6.1°F 3.9°F 91% 30.42 in 0.2 miles Calm Calm - N/A Fog Light Freezing Fog
10:53 PM 7.0°F 6.1°F 96% 30.42 in 0.2 miles Calm Calm - N/A Fog Light Freezing Fog
11:53 PM 7.0°F 5.0°F 92% 30.41 in 0.2 miles Calm Calm - N/A Fog Light Freezing Fog
Moon Phase
Jan. 21 Jan. 26 Feb. 03 Feb. 10 Feb. 17
Sunrise:07:29 AM (PST) Moon Rise:12:14 PM (PST)1/21
Sunset:04:33 PM (PST) Moon Set:03:02 AM (PST)1/21

Copyright © 2014 The Weather Underground, Inc.